Theta_e
297 297 297 297 297 297 296 295 295 295 295 294 294 295 294 294 294 293 293 293 293 292 292 291 290 290 289 289 288 288 288 288 288 288 288 288 288 288 288 288 288 288
297 296 296 297 296 296 296 296 295 295 295 295 295 295 294 294 293 293 293 293 292 292 291 291 290 289 289 289 288 288 287 287 287 287 287 287 288 287 287 288 287 287
296 296 296 296 296 296 296 295 295 295 295 295 294 294 294 294 293 293 293 292 292 292 291 291 290 289 289 289 288 288 287 287 287 287 287 287 287 287 287 287 287 286
296 296 296 296 296 295 295 295 295 294 295 295 294 294 294 293 293 293 293 292 292 291 291 290 290 289 289 288 288 287 287 287 287 286 286 286 286 286 286 286 286 285
295 296 296 295 295 295 295 294 294 294 294 294 294 294 294 293 293 293 292 292 292 291 290 290 289 289 288 288 287 287 287 286 286 286 286 286 286 286 285 285 285 284
295 295 295 295 295 295 295 294 294 294 294 294 294 294 293 293 293 293 292 292 292 291 290 289 289 288 288 288 287 287 286 286 285 285 285 285 285 285 284 284 284 284
295 295 295 295 295 294 295 294 294 294 294 293 293 293 293 293 293 292 292 292 291 291 290 289 289 288 288 287 287 286 286 285 285 285 285 285 285 284 284 284 284 283
295 295 295 295 295 294 294 294 294 294 293 293 293 293 292 292 292 292 292 292 291 291 290 289 289 288 288 287 286 286 285 285 284 284 284 284 284 284 284 284 283 283
295 295 295 295 295 294 294 294 294 294 293 293 293 292 292 292 292 292 291 291 291 290 290 289 289 288 288 287 287 286 285 285 284 284 284 284 283 284 284 283 283 282
295 295 294 294 294 294 294 294 294 294 294 293 293 292 292 291 291 291 291 290 290 290 289 289 289 288 287 287 286 286 285 285 284 284 284 284 284 283 283 283 283 282
295 294 294 294 294 294 294 294 295 294 293 293 292 292 291 291 291 290 290 290 289 289 289 289 289 288 287 287 286 286 285 284 284 284 284 284 284 283 283 283 283 282
294 294 294 294 294 294 294 294 294 294 293 293 292 292 291 291 290 290 290 289 289 289 289 289 288 288 287 287 286 286 285 284 284 283 283 283 283 283 283 283 283 283
293 294 294 294 294 294 294 294 293 293 293 293 292 292 291 290 290 290 290 289 289 289 289 288 288 288 287 286 286 285 285 284 283 283 283 283 283 283 283 283 283 282
292 293 293 294 294 294 293 293 293 293 292 292 292 291 291 291 290 290 289 289 289 288 288 288 287 287 286 286 285 285 284 284 283 283 282 282 282 282 282 282 282 282
292 292 292 293 293 293 293 292 292 292 292 292 291 291 291 290 290 289 289 288 288 288 288 287 287 287 286 286 285 284 284 284 283 283 282 282 281 281 281 281 281 282
291 291 291 292 292 292 292 292 292 292 291 291 291 291 290 290 289 289 288 288 288 287 287 287 286 286 286 286 286 285 284 283 283 282 282 281 281 280 280 280 280 281
290 290 290 290 291 291 292 291 291 291 291 291 291 290 290 289 289 288 288 288 287 287 287 286 286 286 286 285 285 285 285 283 282 282 281 281 281 280 280 279 279 279
290 290 289 289 290 290 291 291 291 291 290 290 290 290 289 289 288 288 288 287 287 287 286 286 286 286 285 285 285 284 284 284 282 282 281 280 280 280 279 279 279 279
289 289 289 289 289 289 290 290 290 290 290 290 289 289 289 288 288 288 287 287 287 286 286 286 286 285 285 284 284 284 284 284 283 282 281 280 280 279 279 279 278 278
288 288 289 289 288 288 288 289 290 289 289 289 289 289 288 288 287 287 287 287 286 286 286 286 285 285 284 284 284 284 284 283 283 282 281 280 279 279 278 278 278 278
288 288 288 288 288 288 288 288 289 289 289 289 289 288 288 287 287 287 286 286 286 286 285 285 285 284 284 284 284 284 284 283 282 281 280 279 279 278 278 278 278 278
287 287 287 288 288 288 287 287 288 288 288 288 288 288 287 287 287 286 286 286 286 285 285 285 284 284 283 283 284 284 284 283 282 280 279 278 278 278 277 277 277 277
287 287 287 287 287 287 287 287 287 287 287 288 287 287 287 286 286 286 286 285 285 285 284 284 283 283 283 283 284 285 284 283 281 279 278 278 277 277 277 276 276 277
287 286 286 287 287 287 287 286 286 286 286 286 287 286 286 286 286 285 285 285 284 284 284 283 283 282 282 283 284 285 285 283 280 279 278 277 277 276 276 276 276 276
286 286 286 286 286 287 287 286 286 285 285 285 285 285 285 285 285 284 284 283 283 283 283 283 282 282 282 283 285 285 285 283 280 278 277 276 276 276 275 276 276 276
286 286 286 286 286 287 287 287 286 285 285 284 284 284 284 284 283 283 283 282 282 282 282 282 281 281 281 283 285 285 285 283 280 278 277 276 276 276 276 276 276 276
Wind_Speed
40 40 41 41 40 40 40 40 41 41 42 43 45 46 47 47 47 48 49 50 50 49 49 48 47 47 46 45 45 44 43 42 42 40 39 37 36 34 33 32 31 29
39 39 39 39 40 40 40 41 41 42 42 43 44 44 44 44 45 47 49 49 49 49 49 49 48 47 46 46 45 45 44 43 42 41 40 39 37 36 34 33 32 30
36 37 37 39 40 40 40 39 39 40 41 41 42 42 42 42 43 45 47 48 48 48 49 49 49 48 47 47 46 45 45 44 44 43 41 40 38 37 36 34 32 30
35 36 37 38 37 36 36 37 38 40 41 41 42 42 41 41 42 43 45 46 47 47 48 48 48 48 48 47 47 46 46 45 44 43 41 40 39 38 36 34 32 31
35 37 38 38 37 35 34 35 38 39 40 42 42 41 42 42 42 43 44 46 47 47 47 46 47 47 47 47 47 46 45 44 43 42 41 40 40 38 36 34 33 31
34 36 36 36 35 34 35 37 38 38 39 40 40 41 42 42 43 44 45 46 47 47 47 46 46 46 46 46 46 46 45 44 43 42 41 41 40 38 36 34 34 33
34 35 35 35 35 35 36 37 37 38 39 38 39 41 42 42 44 45 45 46 46 47 47 46 46 46 46 46 45 45 44 43 42 42 41 40 39 37 36 35 35 34
33 34 34 34 35 36 38 38 38 38 39 38 40 41 41 42 44 44 45 45 45 46 46 46 46 46 46 46 46 45 44 43 43 42 42 40 39 38 38 37 35 34
33 34 34 34 36 37 39 40 39 39 39 40 42 41 40 41 42 43 44 45 45 45 45 45 46 46 47 47 47 47 46 45 44 44 43 42 41 40 39 38 36 35
33 34 34 35 36 38 40 41 41 41 41 42 42 40 40 41 40 41 42 43 44 45 45 46 47 47 47 47 48 48 47 46 45 44 44 43 43 42 41 40 39 38
33 33 33 35 36 39 41 42 42 43 42 42 41 40 40 40 40 41 41 43 44 46 47 48 48 47 47 47 47 47 47 46 45 45 46 45 44 43 42 42 41 40
30 32 33 36 37 39 41 41 42 42 41 41 41 41 41 41 42 43 43 44 45 46 47 48 47 47 48 48 48 47 47 46 45 45 46 46 45 44 43 43 42 41
28 30 33 35 37 39 40 40 40 40 40 41 41 41 42 42 42 44 45 46 46 46 46 46 47 47 48 47 47 47 47 46 45 45 45 45 45 45 45 44 44 43
30 31 32 34 36 37 38 38 37 38 40 40 40 41 43 43 43 44 45 45 45 45 45 44 45 46 46 46 45 46 46 47 46 46 45 44 44 44 45 45 44 44
33 32 32 32 33 34 35 36 37 38 39 39 40 42 43 42 42 42 42 42 43 44 44 44 45 46 47 48 47 47 47 47 48 47 46 44 43 43 43 44 45 45
34 33 32 32 32 33 34 35 36 37 37 38 40 41 41 40 39 39 40 42 42 42 42 43 45 46 48 50 50 50 49 47 46 45 45 45 44 43 42 42 43 44
36 35 33 31 31 32 33 34 35 35 36 37 38 38 38 38 38 39 41 41 41 41 41 43 44 44 46 48 50 51 50 47 45 44 44 44 44 44 44 43 42 43
37 36 35 33 31 31 32 33 33 33 33 34 35 36 36 36 38 40 40 39 39 40 41 43 43 43 44 47 49 50 50 48 45 44 44 44 44 45 45 45 43 43
35 35 35 34 32 31 30 30 30 31 31 33 34 34 34 35 37 38 38 39 39 40 41 42 42 42 44 46 48 50 50 49 45 44 45 45 45 46 45 45 44 43
34 34 34 35 34 31 29 28 28 30 31 32 32 32 32 34 36 37 37 38 39 40 40 40 41 42 43 45 47 48 50 50 46 44 44 44 44 45 44 44 45 44
34 34 34 34 34 32 28 26 27 28 30 30 30 31 32 34 35 36 37 37 38 39 39 39 40 40 41 43 45 46 48 48 46 43 42 41 41 41 41 42 43 43
33 34 34 34 34 33 30 28 27 27 28 29 29 29 31 32 32 33 35 36 37 38 38 38 38 38 39 41 42 43 44 44 43 41 39 39 39 39 39 40 40 41
33 33 33 33 32 32 31 31 28 27 27 27 27 28 29 30 31 32 34 35 36 37 38 37 36 36 38 39 39 40 41 41 41 40 38 38 38 39 39 38 38 40
34 33 33 33 32 31 30 30 29 28 27 25 26 28 29 31 31 31 32 33 35 36 37 37 35 36 38 39 39 40 41 41 40 39 37 37 36 36 36 36 37 38
34 34 33 33 32 32 31 30 29 28 26 25 25 28 29 30 29 29 30 31 33 34 35 35 35 34 36 37 37 38 40 41 40 38 36 35 34 33 33 33 34 35
33 33 33 33 34 34 32 30 28 27 26 24 25 27 27 27 27 27 28 29 30 31 32 34 34 34 35 35 35 37 40 41 41 39 37 35 33 33 32 32 33 33
Wind_Direction
216 214 214 215 215 215 214 212 211 210 210 210 211 213 214 215 215 214 215 216 217 218 219 220 221 221 221 221 220 219 219 218 218 217 215 215 214 213 213 214 214 214
220 219 217 217 217 217 216 216 215 213 213 214 215 216 216 216 215 215 216 216 216 218 219 219 220 221 221 220 220 219 218 218 218 217 216 215 214 214 214 215 214 213
224 223 222 222 221 220 219 218 218 217 217 217 218 218 218 217 216 216 216 216 215 217 218 219 219 219 220 220 219 219 219 218 218 217 216 216 215 215 215 215 214 212
228 227 227 227 227 226 224 221 220 219 219 219 220 219 219 218 217 216 217 216 216 216 217 217 218 218 218 218 218 218 219 219 219 217 216 215 216 216 215 214 213 212
233 232 231 231 230 230 229 226 224 223 221 221 221 220 219 218 216 216 216 216 215 216 216 216 217 217 216 216 216 217 217 217 218 217 216 215 215 216 215 213 212 211
236 236 235 235 234 233 232 231 229 227 226 224 223 222 220 218 217 216 215 215 215 214 214 214 215 215 215 214 214 215 216 216 216 216 215 215 215 215 214 214 212 212
240 240 240 239 238 236 236 236 234 232 231 229 227 226 222 219 218 217 216 215 214 213 213 213 213 213 213 213 212 213 214 214 215 215 214 214 214 214 213 213 213 212
248 246 244 242 240 238 238 237 236 235 233 231 231 229 226 223 220 218 216 215 214 213 212 212 212 212 212 211 211 211 212 212 213 213 212 212 212 213 212 212 212 212
256 252 249 246 243 241 239 239 238 237 235 234 233 231 228 227 224 220 217 215 214 213 212 212 212 212 212 211 211 211 210 211 212 212 211 211 211 212 211 210 210 210
261 257 253 249 246 243 242 240 239 238 236 235 234 231 229 227 226 224 220 216 213 212 211 212 212 212 212 212 211 211 211 210 211 211 211 211 212 212 211 210 209 209
267 262 258 254 251 248 246 243 241 239 237 235 233 231 229 227 224 223 222 219 215 213 212 212 212 212 211 211 211 211 211 211 210 211 211 212 212 213 212 211 211 210
274 268 263 259 257 254 252 248 244 242 239 236 233 231 229 226 224 222 221 220 219 217 214 213 212 212 212 212 211 210 210 210 210 211 211 211 212 212 212 212 212 211
287 278 272 267 263 260 256 253 249 245 241 238 235 232 229 226 224 222 221 221 221 220 217 214 212 212 212 212 210 209 208 208 209 210 211 211 211 211 212 213 213 212
311 297 286 277 271 265 260 256 252 248 243 240 236 233 231 228 225 224 222 221 221 220 218 216 213 212 211 210 209 209 207 207 208 209 209 209 210 211 211 212 212 212
331 317 302 289 279 270 264 258 254 249 245 241 237 234 232 230 227 225 223 222 221 220 218 216 214 213 212 210 208 207 207 207 208 208 208 207 207 209 210 211 211 212
345 335 321 305 291 279 270 263 257 252 247 242 238 235 233 230 227 225 224 223 221 220 218 216 216 215 214 212 210 208 207 207 207 207 207 206 205 205 207 209 210 211
351 346 337 323 307 292 281 271 262 255 249 244 240 236 233 229 226 225 224 223 222 221 219 217 218 217 216 214 212 211 208 206 206 206 206 206 206 204 205 206 207 209
351 349 344 336 323 307 293 280 269 259 251 245 241 237 233 229 226 225 223 222 222 221 221 220 219 219 217 215 213 212 210 208 206 206 206 206 207 206 205 204 204 205
350 348 345 340 333 322 306 290 276 264 254 248 243 239 234 230 227 226 224 222 221 221 222 221 220 219 217 216 214 213 212 210 207 207 207 207 207 207 205 203 202 201
348 346 344 340 337 330 316 300 283 270 260 252 246 240 234 231 229 227 225 223 221 221 222 222 222 220 217 215 214 212 212 211 209 208 208 208 208 207 205 203 202 199
344 343 341 339 337 332 322 307 292 279 268 257 248 241 236 232 230 228 226 225 223 222 222 223 222 220 217 215 213 211 211 211 209 208 208 208 209 208 207 205 203 201
340 338 337 337 335 332 324 314 302 289 276 264 253 245 239 235 233 230 228 226 224 222 222 223 222 219 215 213 211 209 209 208 207 207 206 207 207 207 207 206 204 202
335 334 333 333 332 329 324 317 309 298 285 272 258 249 243 238 234 232 229 227 225 222 221 221 221 217 214 212 207 205 205 205 204 204 204 205 205 206 206 206 205 204
331 330 329 329 327 325 321 316 310 301 291 278 261 251 246 241 237 234 231 228 226 223 222 221 220 216 213 209 204 202 204 204 201 201 202 203 203 203 204 204 204 204
326 327 326 324 322 320 318 315 310 303 294 280 265 254 248 243 239 234 232 230 227 226 223 221 220 216 211 207 202 200 203 203 200 198 200 201 199 198 199 201 202 202
322 322 321 320 318 317 316 313 310 304 295 283 270 260 252 246 241 236 233 232 229 227 225 222 220 217 210 206 202 201 203 203 199 198 199 198 195 194 194 195 198 199